Fort Madison, IA

9:46 PM CDT on August 16, 2017 (GMT -0500)
Fort Madison Municipal

Weather History for KFSW - February, 2013

Change the Weather History Date:

Monday, February 11, 2013

  Actual Average Record
Temperature  
Mean Temperature 34 °F -  
Max Temperature 39 °F 34 °F 68 °F (1999)
Min Temperature 26 °F 17 °F -13 °F (2014)
Degree Days  
Heating Degree Days 32    
Moisture  
Dew Point 23 °F    
Average Humidity 66    
Maximum Humidity 86    
Minimum Humidity 60    
Precipitation  
Precipitation 0.00 in - - ()
Sea Level Pressure  
Sea Level Pressure 29.94 in    
Wind  
Wind Speed 19 mph (West)    
Max Wind Speed 29 mph    
Max Gust Speed 39 mph    
Visibility 10 miles    
Events      
Averages and records for this station are not official NWS values.
T = Trace of Precipitation, MM = Missing Value Source: NWS Daily Summary

Daily Weather History Graph

Daily Weather History Graph

Search for Another Location

Airport or City:

Trip Planner

Search our weather history database for the weather conditions in past years. The results will help you decide how hot, cold, wet, or windy it might be!

Date:

Astronomy

Feb. 11, 2013 Rise Set
Actual Time 7:03 AM CST 5:35 PM CST
Civil Twilight 6:35 AM CST 6:04 PM CST
Nautical Twilight 6:03 AM CST 6:36 PM CST
Astronomical Twilight 5:31 AM CST 7:08 PM CST
Moon 7:27 AM CST (2/11) 7:33 PM CST (2/11)
Length of Visible Light 11h 28m
Length of Day
10h 31m
Waxing Crescent, 3% of the Moon is Illuminated
Feb 11
Waxing Crescent
Feb 17
First Quarter
Feb 25
Full
Mar 4
Last Quarter
Mar 11
New

Hourly Weather History & Observations

Time (CST) Temp. Windchill Dew Point Humidity Pressure Visibility Wind Dir Wind Speed Gust Speed Precip Events Conditions
12:15 AM 35.6 °F 24.0 °F 23.0 °F 60% 29.67 in 10.0 mi WSW 23.0 mph 36.8 mph N/A   Overcast
12:35 AM 35.6 °F 24.8 °F 23.0 °F 60% 29.68 in 10.0 mi West 19.6 mph 34.5 mph N/A   Overcast
12:55 AM 33.8 °F 22.5 °F 23.0 °F 65% 29.68 in 10.0 mi WSW 19.6 mph 31.1 mph N/A   Overcast
1:15 AM 33.8 °F 21.9 °F 23.0 °F 65% 29.69 in 10.0 mi WSW 21.9 mph 28.8 mph N/A   Overcast
1:35 AM 33.8 °F 21.9 °F 23.0 °F 65% 29.70 in 10.0 mi West 21.9 mph 34.5 mph N/A   Overcast
1:55 AM 33.8 °F 22.2 °F 21.2 °F 60% 29.70 in 10.0 mi West 20.7 mph 33.4 mph N/A   Overcast
2:15 AM 33.8 °F 22.8 °F 21.2 °F 60% 29.72 in 10.0 mi WSW 18.4 mph 31.1 mph N/A   Overcast
2:35 AM 33.8 °F 20.8 °F 21.2 °F 60% 29.72 in 10.0 mi West 26.5 mph 34.5 mph N/A   Overcast
2:55 AM 33.8 °F 21.9 °F 21.2 °F 60% 29.73 in 10.0 mi West 21.9 mph 33.4 mph N/A   Overcast
3:15 AM 33.8 °F 21.6 °F 23.0 °F 65% 29.74 in 10.0 mi West 23.0 mph 35.7 mph N/A   Overcast
3:35 AM 33.8 °F 21.3 °F 21.2 °F 60% 29.75 in 10.0 mi West 24.2 mph 39.1 mph N/A   Overcast
3:55 AM 33.8 °F 21.0 °F 21.2 °F 60% 29.76 in 10.0 mi West 25.3 mph 35.7 mph N/A   Overcast
4:15 AM 33.8 °F 23.2 °F 21.2 °F 60% 29.77 in 10.0 mi West 17.3 mph 32.2 mph N/A   Overcast
4:35 AM 33.8 °F 21.6 °F 21.2 °F 60% 29.78 in 10.0 mi West 23.0 mph 32.2 mph N/A   Overcast
4:55 AM 32.0 °F 18.1 °F 21.2 °F 64% 29.79 in 10.0 mi West 27.6 mph 35.7 mph N/A   Overcast
5:15 AM 32.0 °F 20.5 °F 21.2 °F 64% 29.79 in 10.0 mi West 18.4 mph 28.8 mph N/A   Overcast
5:35 AM 32.0 °F 19.2 °F 21.2 °F 64% 29.80 in 10.0 mi West 23.0 mph 29.9 mph N/A   Overcast
5:55 AM 32.0 °F 19.8 °F 21.2 °F 64% 29.81 in 10.0 mi West 20.7 mph 27.6 mph N/A   Overcast
6:15 AM 32.0 °F 19.2 °F 21.2 °F 64% 29.82 in 10.0 mi West 23.0 mph 36.8 mph N/A   Overcast
6:35 AM 32.0 °F 20.5 °F 21.2 °F 64% 29.83 in 10.0 mi West 18.4 mph 33.4 mph N/A   Overcast
6:55 AM 32.0 °F 19.8 °F 21.2 °F 64% 29.84 in 10.0 mi West 20.7 mph 28.8 mph N/A   Overcast
7:15 AM 32.0 °F 21.6 °F 21.2 °F 64% 29.86 in 10.0 mi West 15.0 mph 31.1 mph N/A   Overcast
7:35 AM 32.0 °F 19.8 °F 21.2 °F 64% 29.87 in 10.0 mi West 20.7 mph 28.8 mph N/A   Overcast
7:55 AM 32.0 °F 19.2 °F 19.4 °F 60% 29.88 in 10.0 mi West 23.0 mph 31.1 mph N/A   Overcast
8:15 AM 32.0 °F 20.1 °F 19.4 °F 60% 29.89 in 10.0 mi WNW 19.6 mph 31.1 mph N/A   Overcast
8:35 AM 32.0 °F 19.2 °F 19.4 °F 60% 29.90 in 10.0 mi West 23.0 mph 27.6 mph N/A   Overcast
8:55 AM 32.0 °F 20.1 °F 19.4 °F 60% 29.91 in 10.0 mi West 19.6 mph 33.4 mph N/A   Overcast
9:15 AM 32.0 °F 19.8 °F 19.4 °F 60% 29.92 in 10.0 mi West 20.7 mph 32.2 mph N/A   Overcast
9:35 AM 32.0 °F 20.1 °F 21.2 °F 64% 29.94 in 10.0 mi West 19.6 mph 23.0 mph N/A   Overcast
9:55 AM 32.0 °F 20.1 °F 21.2 °F 64% 29.95 in 10.0 mi West 19.6 mph 27.6 mph N/A   Overcast
10:15 AM 32.0 °F 20.1 °F 21.2 °F 64% 29.97 in 10.0 mi West 19.6 mph 34.5 mph N/A   Overcast
10:35 AM 33.8 °F 21.3 °F 21.2 °F 60% 29.97 in 10.0 mi West 24.2 mph 31.1 mph N/A   Overcast
10:55 AM 33.8 °F 22.2 °F 21.2 °F 60% 29.97 in 10.0 mi West 20.7 mph 32.2 mph N/A   Overcast
11:15 AM 33.8 °F 22.2 °F 21.2 °F 60% 29.98 in 10.0 mi West 20.7 mph 33.4 mph N/A   Mostly Cloudy
11:35 AM 35.6 °F 22.7 °F 23.0 °F 60% 29.97 in 10.0 mi WNW 28.8 mph 36.8 mph N/A   Mostly Cloudy
11:55 AM 35.6 °F 24.2 °F 23.0 °F 60% 29.98 in 10.0 mi West 21.9 mph 31.1 mph N/A   Mostly Cloudy
12:15 PM 37.4 °F 26.9 °F 24.8 °F 60% 29.97 in 10.0 mi West 20.7 mph 31.1 mph N/A   Scattered Clouds
12:35 PM 37.4 °F 26.6 °F 24.8 °F 60% 29.98 in 10.0 mi West 21.9 mph 28.8 mph N/A   Mostly Cloudy
12:55 PM 37.4 °F 27.5 °F 24.8 °F 60% 29.98 in 10.0 mi WNW 18.4 mph 31.1 mph N/A   Mostly Cloudy
1:15 PM 37.4 °F 27.5 °F 24.8 °F 60% 29.98 in 10.0 mi West 18.4 mph 25.3 mph N/A   Mostly Cloudy
1:35 PM 39.2 °F 28.7 °F 26.6 °F 61% 29.99 in 10.0 mi West 23.0 mph 26.5 mph N/A   Mostly Cloudy
1:55 PM 37.4 °F 26.9 °F 24.8 °F 60% 29.99 in 10.0 mi WNW 20.7 mph 28.8 mph N/A   Scattered Clouds
2:15 PM 37.4 °F 26.4 °F 24.8 °F 60% 29.99 in 10.0 mi West 23.0 mph 27.6 mph N/A   Mostly Cloudy
2:35 PM 37.4 °F 26.9 °F 24.8 °F 60% 30.00 in 10.0 mi WNW 20.7 mph 28.8 mph N/A   Mostly Cloudy
2:55 PM 37.4 °F 27.5 °F 24.8 °F 60% 30.01 in 10.0 mi West 18.4 mph 26.5 mph N/A   Overcast
3:15 PM 37.4 °F 26.6 °F 24.8 °F 60% 30.01 in 10.0 mi West 21.9 mph 26.5 mph N/A   Overcast
3:35 PM 37.4 °F 27.5 °F 24.8 °F 60% 30.02 in 10.0 mi West 18.4 mph 26.5 mph N/A   Overcast
3:55 PM 39.2 °F 29.8 °F 26.6 °F 61% 30.02 in 10.0 mi West 18.4 mph 21.9 mph N/A   Overcast
4:55 PM 35.6 °F 26.2 °F 24.8 °F 65% 30.05 in 10.0 mi WNW 15.0 mph 18.4 mph N/A   Scattered Clouds
5:15 PM 35.6 °F 25.9 °F 24.8 °F 65% 30.05 in 10.0 mi WNW 16.1 mph 21.9 mph N/A   Scattered Clouds
5:35 PM 33.8 °F 25.8 °F 24.8 °F 70% 30.06 in 10.0 mi WNW 10.4 mph - N/A   Scattered Clouds
5:55 PM 33.8 °F 25.3 °F 24.8 °F 70% 30.07 in 10.0 mi WNW 11.5 mph - N/A   Clear
6:15 PM 32.0 °F 24.2 °F 24.8 °F 75% 30.08 in 10.0 mi NW 9.2 mph - N/A   Clear
6:35 PM 32.0 °F 24.8 °F 24.8 °F 75% 30.08 in 10.0 mi WNW 8.1 mph - N/A   Clear
6:55 PM 30.2 °F 24.3 °F 24.8 °F 80% 30.09 in 10.0 mi WNW 5.8 mph - N/A   Clear
7:15 PM 30.2 °F 23.4 °F 24.8 °F 80% 30.09 in 10.0 mi West 6.9 mph - N/A   Scattered Clouds
7:35 PM 30.2 °F 23.4 °F 24.8 °F 80% 30.09 in 10.0 mi WNW 6.9 mph - N/A   Scattered Clouds
7:55 PM 30.2 °F 26.7 °F 24.8 °F 80% 30.10 in 10.0 mi WNW 3.5 mph - N/A   Scattered Clouds
8:15 PM 30.2 °F 23.4 °F 24.8 °F 80% 30.10 in 10.0 mi WNW 6.9 mph - N/A   Scattered Clouds
8:35 PM 28.4 °F 24.6 °F 24.8 °F 86% 30.10 in 10.0 mi NW 3.5 mph - N/A   Scattered Clouds
8:55 PM 30.2 °F 21.9 °F 23.0 °F 75% 30.11 in 10.0 mi West 9.2 mph - N/A   Clear
9:15 PM 30.2 °F 22.6 °F 23.0 °F 75% 30.11 in 10.0 mi West 8.1 mph - N/A   Clear
9:35 PM 28.4 °F 20.4 °F 23.0 °F 80% 30.12 in 10.0 mi West 8.1 mph - N/A   Clear
9:55 PM 28.4 °F 21.2 °F 23.0 °F 80% 30.12 in 10.0 mi West 6.9 mph - N/A   Clear
10:15 PM 28.4 °F 20.4 °F 23.0 °F 80% 30.12 in 10.0 mi West 8.1 mph - N/A   Scattered Clouds
10:35 PM 28.4 °F 20.4 °F 23.0 °F 80% 30.12 in 10.0 mi WNW 8.1 mph - N/A   Scattered Clouds
10:55 PM 28.4 °F 20.4 °F 23.0 °F 80% 30.13 in 10.0 mi WNW 8.1 mph 16.1 mph N/A   Clear
11:15 PM 28.4 °F 23.3 °F 23.0 °F 80% 30.13 in 10.0 mi West 4.6 mph - N/A   Clear
11:35 PM 28.4 °F 24.6 °F 23.0 °F 80% 30.13 in 10.0 mi West 3.5 mph - N/A   Clear
11:55 PM 26.6 °F - 23.0 °F 86% 30.13 in 10.0 mi Calm Calm - N/A   Clear